FW2780 Weather Reports


time (UTC)temp
F
wind
direction
speed
knots
gust
knots
rain 1hr
in
rain 24hr
in
rain mn
in
humidity
%
barometer
mb
20260505070026 45 246 10.4 33.9 0.00 0.09 0.00 80 1007.4
20260505064523 45 60 9.6 30.4 0.00 0.09 0.00 80 1007.2
20260505063020 45 292 9.6 22.6 0.00 0.09 0.00 80 1006.7
20260505061519 45 192 9.6 26.9 0.00 0.09 0.00 79 1006.5
20260505060022 46 274 13.9 30.4 0.00 0.09 0.00 78 1006.3
20260505054512 46 279 16.5 28.7 0.00 0.09 0.00 78 1005.8
20260505053017 47 230 10.4 33.0 0.00 0.09 0.00 77 1005.8
20260505051508 47 293 11.3 27.8 0.00 0.09 0.00 76 1005.7
20260505041610 48 243 17.4 34.8 0.00 0.09 0.00 75 1005.2
20260505040100 47 238 11.3 26.1 0.00 0.09 0.00 76 1004.8
20260505034551 48 270 13.0 24.3 0.00 0.09 0.00 76 1004.8
20260505033050 48 201 9.6 27.8 0.00 0.09 0.00 75 1004.5
20260505031548 48 237 10.4 24.3 0.00 0.09 0.00 74 1004.2
20260505030043 49 236 9.6 22.6 0.00 0.09 0.00 72 1004.1
20260505024539 49 287 10.4 23.5 0.00 0.09 0.02 70 1003.9
20260505023044 49 221 7.0 22.6 0.00 0.09 0.02 69 1003.6
20260505021541 50 190 9.6 30.4 0.00 0.09 0.02 66 1003.5
20260505020037 50 248 10.4 23.5 0.00 0.09 0.02 64 1003.2
20260505014549 50 230 8.7 19.1 0.00 0.11 0.02 63 1003.0
20260505013039 51 255 7.8 23.5 0.00 0.11 0.02 61 1003.0
20260505011534 51 259 7.8 20.0 0.00 0.11 0.02 62 1002.9
20260505010033 51 302 13.0 28.7 0.00 0.11 0.02 59 1002.7
20260505004537 50 247 8.7 19.1 0.00 0.17 0.02 58 1002.3
20260505003030 51 272 9.6 26.1 0.00 0.17 0.02 57 1002.3
20260505001530 50 60 8.7 20.9 0.00 0.17 0.02 58 1002.3
20260505000033 49 233 8.7 20.9 0.00 0.17 0.02 57 1002.1
20260504234526 49 233 6.1 18.2 0.00 0.27 0.02 55 1001.8
20260504233025 49 256 5.2 16.5 0.00 0.27 0.02 56 1001.6
20260504231525 49 237 3.5 13.9 0.00 0.27 0.02 57 1001.6
20260504230022 49 60 7.0 20.0 0.00 0.27 0.02 58 1001.5
20260504224521 49 249 7.0 20.0 0.00 0.36 0.02 58 1001.4
20260504223021 49 272 6.1 20.9 0.00 0.36 0.02 58 1001.4
20260504221521 50 235 9.6 24.3 0.00 0.36 0.02 56 1001.0
20260504220017 51 273 8.7 29.5 0.00 0.36 0.02 56 1001.1
20260504214515 50 258 8.7 28.7 0.00 0.44 0.02 60 1000.8
20260504213035 50 223 12.2 26.1 0.00 0.44 0.02 58 1000.6
20260504211516 50 302 13.0 27.8 0.00 0.44 0.02 59 1000.4
20260504210012 50 224 13.9 33.0 0.00 0.44 0.02 58 1000.2
20260504204508 49 272 16.5 32.2 0.00 0.44 0.02 61 1000.2
20260504203009 49 300 15.6 33.0 0.00 0.44 0.02 60 999.7
20260504201505 48 265 16.5 42.6 0.00 0.44 0.02 63 999.6
20260504200101 48 95 20.9 40.0 0.00 0.44 0.02 64 999.1
20260504194606 47 335 13.0 36.5 0.00 0.44 0.02 70 998.9
20260504193108 46 308 17.4 35.6 0.00 0.44 0.02 71 998.6
20260504191552 45 313 13.0 26.9 0.00 0.44 0.02 75 998.6
20260504190105 44 250 14.8 33.9 0.00 0.44 0.02 76 998.3
20260504184559 44 256 13.0 32.2 0.00 0.44 0.02 77 998.3
20260504183047 44 310 18.2 39.1 0.00 0.44 0.02 77 998.2
20260504181544 43 60 12.2 31.3 0.00 0.44 0.02 82 997.9
20260504180040 42 250 14.8 36.5 0.00 0.44 0.02 83 998.0
20260504174537 42 3 11.3 39.1 0.00 0.44 0.02 86 997.8
20260504173044 41 267 12.2 31.3 0.00 0.44 0.02 88 996.8
20260504171533 40 300 13.9 33.0 0.00 0.44 0.02 90 997.1
20260504140111 36 249 12.2 33.0 0.01 0.43 0.02 96 992.2
20260504090125 36 289 11.3 20.0 0.04 0.42 0.06 94 978.0
20260504081556 37 267 4.3 15.6 0.02 0.39 0.03 94 976.4